Regional Weather Roundup
Issued by NWS Sterling, VA

Home | Current Version | Previous Version | Graphics & Text | Print | Product List | Glossary On
Versions: 1 2 3 4 5 6 7 8 9 10 11 12 13 14 15 16 17 18 19 20 21 22 23 24 25 26 27 28 29 30 31 32 33 34 35 36 37 38 39 40 41 42 43 44 45 46 47 48 49 50
000
ASUS41 KLWX 061010
RWRLWX

REGIONAL WEATHER ROUNDUP
NATIONAL WEATHER SERVICE BALTIMORE MD/WASHINGTON DC
600 AM EDT MON JUL 06 2015

Note: "FAIR" indicates few or no clouds below 12,000 feet
with no significant weather and/or obstructions to visibility.
 TC=TEMPERATURE CELSIUS

 * =Non NWS site. Station does not report precipitation (e.g. rain,
    snow, etc.), thunder, or fog.

DCZ001-MDZ009-015-VAZ040>042-051-053>054-061100-
WASHINGTON METRO

CITY           SKY/WX    TMP DP  RH WIND       PRES   REMARKS
WASHINGTON NAT CLOUDY    77  72  84 CALM      30.11R
DULLES         CLOUDY    72  71  97 E3        30.11R FOG
ANDREWS AFB    CLOUDY    73  73 100 E5        30.11R
FT BELVOIR     CLOUDY    73  71  96 SE1       30.10R FOG
QUANTICO       CLOUDY    75  71  87 SE9       30.11R
COLLEGE PARK*  CLOUDY    73  73 100 CALM      30.11R
LEESBURG*      CLOUDY    73  73 100 S7        30.12R FOG
MANASSAS*      CLOUDY    73  73 100 CALM        N/A
GAITHERSBURG*  CLOUDY    72  70  94 CALM      30.16R

$$

MDZ006>007-011-014-061100-
BALTIMORE METRO

CITY           SKY/WX    TMP DP  RH WIND       PRES   REMARKS
BWI AIRPORT    CLOUDY    73  72  96 E3        30.11R
MD SCIENCE CTR   N/A     75  72  90 MISG      30.12R
MARTIN STATE   DRIZZLE   73  73 100 CALM      30.13R
ANNAPOLIS      CLOUDY    75  71  87 SE12      30.10R
FORT MEADE*    CLOUDY    70  68  94 E3        30.13R

$$

MDZ012-015-019>023-061100-
MARYLAND EASTERN SHORE

CITY           SKY/WX    TMP DP  RH WIND       PRES   REMARKS
OCEAN CITY     LGT RAIN  74  70  87 CALM      30.12S
SALISBURY      CLOUDY    71  70  96 CALM      30.12R
CAMBRIDGE*     CLOUDY    72  68  88 E5        30.11R
EASTON*        CLOUDY   N/A N/A N/A CALM      30.15R

$$

MDZ017>025-061100-
SOUTHERN MARYLAND

CITY           SKY/WX    TMP DP  RH WIND       PRES   REMARKS
PATUXENT RIVER CLOUDY    75  72  90 SE6       30.10R
ST INIGOES     NOT AVBL
LEONARDTOWN*   CLOUDY    72  70  94 CALM      30.12S

$$

MDZ003>005-061100-
NORTH CENTRAL MARYLAND

CITY           SKY/WX    TMP DP  RH WIND       PRES   REMARKS
FREDERICK*     CLOUDY    72  72 100 CALM      30.14R FOG
HAGERSTOWN APT CLOUDY    72  68  87 E5        30.12R FOG
WESTMINSTER*   CLOUDY    72  70  94 CALM      30.14R FOG

$$

MDZ501>502-061100-
WESTERN MARYLAND

CITY           SKY/WX    TMP DP  RH WIND       PRES   REMARKS
OAKLAND*       CLOUDY    63 N/A N/A SE9       30.16S FOG
CUMBERLAND*    CLOUDY    72  68  88 CALM      30.13F

$$

VAZ025>031-061100-
SHENANDOAH VALLEY

CITY           SKY/WX    TMP DP  RH WIND       PRES   REMARKS
WINCHESTER*    MOCLDY    72  70  94 E3        30.10S FOG
FRONT ROYAL*   PTSUNNY   68  66  94 CALM      30.09S
LURAY*         FOG       70  70 100 CALM      30.11S VSB 3/4
NEW MARKET*    CLOUDY    69  68  98 N3        30.09R
STAUNTON*      CLOUDY    71  70  96 CALM      30.12R FOG
WAYNESBORO*    CLOUDY    68  67  97 SE7       30.11R

$$

WVZ021-048>050-054>055-061100-
EASTERN WEST VIRGINIA PANHANDLE

CITY           SKY/WX    TMP DP  RH WIND       PRES   REMARKS
MARTINSBURG    CLOUDY    72  70  93 E3        30.11S FOG
PETERSBURG*    CLOUDY    70  68  92 CALM      30.10S FOG

$$

VAZ036>039-050-061100-
CENTRAL FOOTHILLS

CITY           SKY/WX    TMP DP  RH WIND       PRES   REMARKS
CHARLOTTESVILL CLOUDY    70  68  93 CALM      30.10R
CULPEPER*      CLOUDY    69  69 100 CALM      30.11R FOG
ORANGE*        FOG       70  70 100 CALM      30.11S VSB 1/2
GORDONSVILLE*  CLOUDY    70  70 100 CALM      30.10R FOG
WARRENTON*     CLOUDY    72  72 100 CALM      30.10S FOG

$$

VAZ055>057-061100-
NORTH AND CENTRAL PIEDMONT

CITY           SKY/WX    TMP DP  RH WIND       PRES   REMARKS
FREDERICKSBRG* CLOUDY    75  75 100 CALM      30.09S
STAFFORD*      CLOUDY    71  70  97 CALM      30.14R FOG

$$

NCZ024-NYZ072-PAZ021-071-VAZ022-071-061100-
OTHER REGIONAL OBSERVATIONS

CITY           SKY/WX    TMP DP  RH WIND       PRES   REMARKS
NEW YORK CITY  MOCLDY    72  66  81 CALM      30.18R
PHILADELPHIA   CLOUDY    72  68  87 E5        30.14S
PITTSBURGH     CLOUDY    71  67  87 E5        30.06F
ROANOKE        CLOUDY    69  69 100 SE8       30.11R
RICHMOND       FOG       72  70  94 CALM      30.11R VSB 3/4
RALEIGH        PTCLDY    71  69  93 SE3       30.10R

$$

ANZ530>537-061100-
MARINE OBSERVATIONS

STATION/POSITION TIME  TEMP    WIND        PRES
                       AIR SEA DIR/SP/G
                 (UTC) (F)     (DEG/KT/KT) (MB)
THOMAS PT LIGHT  NOT AVBL
BALT KEY BRIDGE  0900   75     110/  8/  9 1019.2F
COVE POINT       0900   74     130/ 10/ 11 1019.7F
LEWISETTA        0900   76 80  160/  7/  8 1018.8R
SOLOMONS ISLAND  0900      81                N/A
PINEY POINT      0900          150/  9/ 10   N/A

$$



USA.gov is the U.S. government's official web portal to all federal, state and local government web resources and services.